Current weather by "City, St" or "zip code"  
 
Advertise Here

Current Conditions: Huntsville, Huntsville International / Jones Field, AL

A Few Clouds


66.0 F

Last Updated on May 12 2021, 11:53 am CDT
Humidity: 63%
Wind Speed: NE 11.5 mph
Barometer 30.19 in
Dewpoint: 53.1 F
Visibility: 10.00 mi
Precip: --
Heat Index: NA
Wind Chill: NA
Current conditions at:

Huntsville, Huntsville International / Jones Field, AL (KHSV)

Lat: 34.64361 Lon: 86.78556

Local Radar Image active severe weather and emergency alerts image image weather storm and storm spotter reports image weather observation monitoring service image
Local
Radar
Active
Alerts
Storm Reports Obs
Monitoring

Sign-up For Email & Text Message Weather Alert Notification Services


Advertise Here

Observation History for Huntsville, Huntsville International / Jones Field, AL


Time Wind
(mph)
Vis
(mi)
Weather Precip (in) Temperature (F) Relative
Humidity
Wind
Chill
(F)
Heat
Index
(F)
Pressure
Air Dwpt altimeter
(in)
sea level
(mb)
Rmks
11:53 am CDT NE 11.5 10.00 A Few Clouds -- 66.0 53.1 63% NA NA 30.19 1022.0
10:53 am CDT NE 11.5 10.00 Mostly Cloudy -- 62.0 51.1 67% 61 NA 30.18 1021.6
9:53 am CDT NE 12.7 10.00 Mostly Cloudy -- 60.0 51.1 72% 58 NA 30.18 1021.7
8:53 am CDT NE 11.5 10.00 Overcast -- 58.0 48.9 72% 56 NA 30.18 1021.7
7:53 am CDT NE 12.7 10.00 Overcast -- 56.0 48.9 77% 53 NA 30.17 1021.4
6:53 am CDT NE 10.4 10.00 Overcast -- 55.0 50.0 83% 52 NA 30.16 1020.8
5:53 am CDT NE 12.7 10.00 Overcast -- 55.0 55.0 100% 52 NA 30.14 1020.4
4:53 am CDT NE 10.4 10.00 Overcast -- 55.0 % 52 NA 30.13 1020.0
3:53 am CDT NW 10.4 10.00 Overcast Trace 55.0 % 52 NA 30.14 1020.2
2:53 am CDT E 12.7 G 20.7 10.00 Light Rain 00.03 56.0 52.0 87% 53 NA 30.08 1018.2
1:53 am CDT NE 6.9 10.00 Light Rain 00.02 57.0 53.1 87% 56 NA 30.10 1018.8
12:53 am CDT NW 6.9 10.00 Light Rain Trace 61.0 51.1 70% 60 NA 30.11 1019.3
11:53 pm CDT N 9.2 10.00 Overcast -- 63.0 50.0 63% 62 NA 30.11 1019.3
10:53 pm CDT NW 5.8 10.00 Overcast -- 63.0 53.1 70% 63 NA 30.13 1019.9
9:53 pm CDT N 3.5 10.00 Overcast -- 64.0 54.0 70% NA NA 30.14 1020.2
8:53 pm CDT N 4.6 10.00 Overcast -- 64.0 54.0 70% NA NA 30.11 1019.2
7:53 pm CDT E 5.8 10.00 Overcast -- 65.0 51.1 61% NA NA 30.08 1018.3
6:53 pm CDT NE 5.8 10.00 Overcast -- 66.0 50.0 56% NA NA 30.06 1017.5
5:53 pm CDT NE 12.7 10.00 Overcast -- 67.0 51.1 57% NA NA 30.06 1017.7
4:53 pm CDT N 10.4 10.00 Overcast -- 68.0 55.9 65% NA NA 30.09 1018.6
3:53 pm CDT N 0.0 10.00 Overcast -- 70.0 55.9 61% NA NA 30.10 1018.9
2:53 pm CDT N 0.0 10.00 Overcast -- 68.0 55.0 63% NA NA 30.10 1019.0
1:53 pm CDT SE 3.5 10.00 Mostly Cloudy -- 66.0 55.0 68% NA NA 30.12 1019.6
12:53 pm CDT N 0.0 10.00 Mostly Cloudy -- 65.0 55.0 70% NA NA 30.13 1019.8

Regional Weather Observation


Huntsville, Huntsville International / Jones Field, AL (KHSV)

A Few Clouds
66.0 F

Redstone Airfield, AL (KHUA)

Fair
64.0 F

Huntsville, Madison County Executive Airport, AL (KMDQ)

Fair
65.0 F

Pulaski Abernathy Field Airport, TN (KGZS)

Fair
66.0 F

Muscle Shoals, North West Alabama Regional Airport, AL (KMSL)

Fair
68.0 F

Cullman Regional Folsom Field, AL (KCMD)

Mostly Cloudy
64.0 F
Advertise Here

Advertise Here